AirNav   Bose ProFlight Aviation Headset
 
 1802 users online  

5B1 John H Boylan State Airport (Island Pond)
Island Pond, Vermont, USA

GOING TO ISLAND POND?


FAA INFORMATION EFFECTIVE 16 AUGUST 2018

Location

FAA Identifier: 5B1
Lat/Long: 44-47-23.9000N / 071-49-35.1000W
44-47.398333N / 071-49.585000W
44.7899722 / -71.8264167
(estimated)
Elevation: 1194 ft. / 363.9 m (surveyed)
Variation: 17W (1985)
From city: 3 miles SE of ISLAND POND, VT
Time zone: UTC -4 (UTC -5 during Standard Time)
Zip code: 05846

Airport Operations

Airport use: Open to the public
Activation date: 04/1964
Control tower: no
ARTCC: BOSTON CENTER
FSS: BURLINGTON FLIGHT SERVICE STATION
NOTAMs facility: BTV (NOTAM-D service available)
Attendance: UNATNDD
Wind indicator: yes
Segmented circle: yes

Airport Communications

CTAF: 122.9
WX AWOS-3 at CDA (16 nm SW): 119.275 (802-626-4532)
WX AWOS-3 at EFK (18 nm W): 118.275 (802-334-4427)
  • UNICOM FREQUENCY 122.9

Nearby radio navigation aids

VOR radial/distance  VOR name  Freq  Var
BMLr306/28.9BERLIN VOR/DME110.4017W
YSCr200/31.6SHERBROOKE VOR/DME113.2017W

 
NDB name  Hdg/Dist  Freq  Var  ID
MAHN004/26.438617WGMA --. -- .-

Airport Services

Parking: hangars and tiedowns
Airframe service: NONE
Powerplant service: NONE
Bottled oxygen: NONE
Bulk oxygen: NONE

Runway Information

Runway 14/32

Dimensions: 2650 x 120 ft. / 808 x 37 m
Surface: turf, in good condition
Runway edge markings: 14/32 THLDS MARKED WITH YELLOW CONES.
RUNWAY 14  RUNWAY 32
Latitude: 44-47.518923N44-47.277943N
Longitude: 071-49.839993W071-49.329378W
Elevation: 1194.0 ft.1172.0 ft.
Gradient: 0.9%0.8% UP
Traffic pattern: leftleft
Runway heading: 141 magnetic, 124 true321 magnetic, 304 true
Obstructions: 78 ft. trees, 590 ft. from runway, 160 ft. left of centerline, 7:1 slope to clear69 ft. trees, 394 ft. from runway, 125 ft. left of centerline, 5:1 slope to clear

Airport Ownership and Management from official FAA records

Ownership: Publicly-owned
Owner: STATE OF VERMONT
ONE NATIONAL LIFE DRIVE, VERMONT
MONTPELIER, VT 05633-5001
Phone (802) 828-1735
Manager: GUY ROUELLE
VTRANS AVIATION PROGRAM, 186 INDUSTRIAL LANE - BERLIN
BARRE, VT 05641
Phone (802) 828-1735

Airport Operational Statistics

Aircraft based on the field: 5
Single engine airplanes: 3
Ultralights: 2
    
Aircraft operations: avg 34/month *
66% transient general aviation
32% local general aviation
3% military
* for 12-month period ending 31 May 2017

Additional Remarks

SKI OPERATIONS IN WINTER.

Instrument Procedures

There are no published instrument procedures at 5B1.

Some nearby airports with instrument procedures:

KCDA - Caledonia County Airport (16 nm SW)
KEFK - Northeast Kingdom International Airport (18 nm W)
KHIE - Mount Washington Regional Airport (28 nm SE)
KBML - Berlin Regional Airport (31 nm SE)
KMVL - Morrisville-Stowe State Airport (37 nm SW)
 
Loc | Ops | Rwys | IFR | FBO | Links
Com | Nav | Svcs | Stats | Notes


 
Area around 5B1 (John H Boylan State Airport (Island Pond))
 
Road maps at: MapQuest Bing Google
 
Aerial photo
WARNING: Photo may not be current or correct
Aerial photo of 5B1 (John H Boylan State Airport (Island Pond))
Do you have a better or more recent aerial photo of John H Boylan State Airport (Island Pond) that you would like to share? If so, please send us your photo.

 
Sectional chart

 
Airport distance calculator
Flying to John H Boylan State Airport (Island Pond)? Find the distance to fly.

From to 5B1

Sunrise and sunset
Times for 21-Aug-2018
 Local
(UTC-4)
 Zulu
(UTC)
Morning civil twilight05:2609:26
Sunrise05:5709:57
Sunset19:4323:43
Evening civil twilight20:1500:15

Current date and time
Zulu (UTC)  21-Aug-2018 15:09:30
Local (UTC-4)  21-Aug-2018 11:09:30
 
METAR
KCDA 
16nm SW 
211455Z AUTO 18005KT 10SM CLR 20/14 A3015 RMK AO2 T02010139
KEFK 
18nm NW 
211455Z AUTO 14007KT 10SM CLR 22/15 A3011 RMK AO2 T02150152
K1V4 
24nm S 
211454Z AUTO 21/14 A3010 RMK AO1 SLP186 T02060144 58018
KHIE 
28nm SE 
211452Z AUTO 00000KT 10SM FEW041 23/14 A3011 RMK AO2 SLP195 T02280139 58023
KBML 
30nm SE 
211452Z AUTO VRB03KT 10SM CLR 21/16 A3013 RMK AO2 SLP203 T02060156 58020
TAF
KHIE 
28nm SE 
211120Z 2112/2212 00000KT 1SM BR BKN001 FM211230 16006KT P6SM FEW250 FM220200 14006KT P6SM BKN050 PROB30 2206/2212 3SM -SHRA BKN025
NOTAMs
Click for the latest NOTAMs
NOTAMs are issued by the DoD/FAA and will open in a separate window not controlled by AirNav.

 

 
 

Would you like to see your business listed on this page?

 If your business provides an interesting product or service to pilots, flight crews, aircraft, or users of the John H Boylan State Airport (Island Pond), you should consider listing it here.  To start the listing process, click on the button below
 
Add a business
 

Other Pages about John H Boylan State Airport (Island Pond)

aviation.vermont.gov/...
 
Update a link
 
Copyright © AirNav, LLC. All rights reserved. Privacy Policy  Contact